Wheeler Army Airfield, HI

11:02 PM HST on February 09, 2016 (GMT -1000)
Wheeler Army Air Field

Weather History for PHHI - April, 2013

Change the Weather History Date:

Saturday, April 13, 2013

  Actual Average Record
Temperature  
Mean Temperature 72 °F -  
Max Temperature 77 °F 76 °F 82 °F (2004)
Min Temperature 66 °F 62 °F 59 °F (2011)
Cooling Degree Days 6    
Growing Degree Days 22 (Base 50)    
Moisture  
Dew Point 67 °F    
Average Humidity 85    
Maximum Humidity 94    
Minimum Humidity 65    
Precipitation  
Precipitation 0.03 in - - ()
Sea Level Pressure  
Sea Level Pressure 29.89 in    
Wind  
Wind Speed 5 mph (SSE)    
Max Wind Speed 14 mph    
Max Gust Speed 20 mph    
Visibility 10 miles    
Events Rain , Thunderstorm    
Averages and records for this station are not official NWS values.
T = Trace of Precipitation, MM = Missing Value Source: NWS Daily Summary

Daily Weather History Graph

Daily Weather History Graph

Search for Another Location

Airport or City:

Trip Planner

Search our weather history database for the weather conditions in past years. The results will help you decide how hot, cold, wet, or windy it might be!

Date:

Astronomy

Apr. 13, 2013 Rise Set
Actual Time 6:14 AM HST 6:51 PM HST
Civil Twilight 5:51 AM HST 7:13 PM HST
Nautical Twilight 5:25 AM HST 7:40 PM HST
Astronomical Twilight 4:58 AM HST 8:07 PM HST
Moon 8:34 AM HST (4/13) 10:03 PM HST (4/13)
Length of Visible Light 13h 22m
Length of Day
12h 36m
Waxing Crescent, 12% of the Moon is Illuminated
Apr 13
Waxing Crescent
Apr 18
First Quarter
Apr 25
Full
May 2
Last Quarter
May 9
New

Hourly Weather History & Observations

Time (HST) Temp. Dew Point Humidity Pressure Visibility Wind Dir Wind Speed Gust Speed Precip Events Conditions
12:29 AM 68.0 °F 64.4 °F 88% 29.94 in 10.0 mi ESE 3.5 mph - N/A   Mostly Cloudy
12:55 AM 67.5 °F 64.8 °F 91% 29.96 in 10.0 mi Calm Calm - N/A   Overcast
1:55 AM 68.4 °F 64.8 °F 88% 29.93 in 10.0 mi Calm Calm - N/A   Partly Cloudy
2:19 AM 68.0 °F 64.4 °F 88% 29.93 in 10.0 mi Calm Calm - N/A   Partly Cloudy
2:55 AM 68.4 °F 65.5 °F 90% 29.91 in 10.0 mi Calm Calm - N/A   Clear
3:55 AM 66.6 °F 63.9 °F 91% 29.92 in 10.0 mi Calm Calm - N/A   Partly Cloudy
4:55 AM 67.8 °F 65.3 °F 92% 29.86 in 10.0 mi ESE 6.9 mph - N/A   Clear
5:11 AM 68.0 °F 66.2 °F 94% 29.86 in 10.0 mi Variable 3.5 mph - N/A   Partly Cloudy
5:20 AM 68.0 °F 66.2 °F 94% 29.86 in 10.0 mi ESE 4.6 mph - N/A   Mostly Cloudy
5:25 AM 68.0 °F 66.2 °F 94% 29.85 in 10.0 mi ESE 5.8 mph - N/A   Mostly Cloudy
5:55 AM 68.5 °F 66.2 °F 92% 29.85 in 10.0 mi SSE 4.6 mph - N/A   Scattered Clouds
6:55 AM 68.9 °F 66.7 °F 93% 29.86 in 10.0 mi South 10.4 mph - N/A   Scattered Clouds
7:19 AM 69.8 °F 66.2 °F 88% 29.87 in 10.0 mi South 9.2 mph 16.1 mph N/A   Partly Cloudy
7:33 AM 69.8 °F 68.0 °F 94% 29.87 in 10.0 mi South 8.1 mph - N/A   Partly Cloudy
7:55 AM 70.7 °F 67.8 °F 91% 29.88 in 10.0 mi SSE 9.2 mph - N/A   Partly Cloudy
8:03 AM 71.6 °F 68.0 °F 88% 29.88 in 10.0 mi SSE 6.9 mph - N/A   Mostly Cloudy
8:12 AM 71.6 °F 68.0 °F 88% 29.89 in 10.0 mi SSE 8.1 mph - N/A   Mostly Cloudy
8:21 AM 71.6 °F 68.0 °F 88% 29.89 in 10.0 mi SSE 8.1 mph - N/A   Mostly Cloudy
8:28 AM 71.6 °F 68.0 °F 88% 29.89 in 10.0 mi SSE 8.1 mph - N/A   Mostly Cloudy
8:34 AM 71.6 °F 68.0 °F 88% 29.89 in 10.0 mi SSE 9.2 mph - N/A   Mostly Cloudy
8:35 AM 71.6 °F 68.0 °F 88% 29.89 in 10.0 mi SSE 9.2 mph - N/A   Mostly Cloudy
8:41 AM 71.6 °F 68.0 °F 88% 29.88 in 10.0 mi SSE 8.1 mph - N/A   Mostly Cloudy
8:55 AM 73.4 °F 68.4 °F 84% 29.88 in 10.0 mi SE 6.9 mph - N/A   Mostly Cloudy
9:18 AM 73.4 °F 66.2 °F 78% 29.88 in 10.0 mi SSE 8.1 mph - N/A   Mostly Cloudy
9:22 AM 73.4 °F 66.2 °F 78% 29.88 in 10.0 mi SSE 9.2 mph - N/A   Mostly Cloudy
9:55 AM 76.3 °F 66.0 °F 70% 29.89 in 10.0 mi SSE 10.4 mph - N/A   Scattered Clouds
10:55 AM 75.7 °F 66.0 °F 72% 29.90 in 10.0 mi South 6.9 mph - N/A   Mostly Cloudy
11:55 AM 75.4 °F 65.5 °F 71% 29.94 in 10.0 mi Variable 6.9 mph - N/A   Scattered Clouds
12:55 PM 76.6 °F 64.8 °F 67% 29.92 in 10.0 mi Variable 6.9 mph - N/A Thunderstorm Scattered Clouds
12:58 PM 77.0 °F 64.4 °F 65% 29.92 in 9.0 mi SW 6.9 mph - N/A Rain , Thunderstorm Light Rain
1:02 PM 75.2 °F 66.2 °F 73% 29.92 in 7.0 mi South 10.4 mph - N/A Rain , Thunderstorm Light Rain
1:27 PM 73.4 °F 66.2 °F 78% 29.90 in 10.0 mi SE 4.6 mph - N/A   Partly Cloudy
1:43 PM 73.4 °F 68.0 °F 83% 29.87 in 10.0 mi SSE 5.8 mph - N/A   Light Drizzle
1:55 PM 74.7 °F 68.4 °F 81% 29.87 in 10.0 mi Variable 5.8 mph - 0.02 in   Light Drizzle
1:56 PM 75.2 °F 68.0 °F 78% 29.87 in 10.0 mi Variable 4.6 mph - N/A   Scattered Clouds
2:01 PM 75.2 °F 68.0 °F 78% 29.87 in 10.0 mi SSE 5.8 mph - N/A   Mostly Cloudy
2:08 PM 75.2 °F 68.0 °F 78% 29.88 in 10.0 mi SSE 4.6 mph - N/A   Mostly Cloudy
2:42 PM 73.4 °F 68.0 °F 83% 29.88 in 10.0 mi Variable 5.8 mph - N/A   Light Drizzle
2:54 PM 73.4 °F 68.0 °F 83% 29.88 in 10.0 mi SSE 4.6 mph - N/A   Scattered Clouds
2:55 PM 74.3 °F 67.8 °F 80% 29.88 in 10.0 mi Variable 4.6 mph - 0.00 in   Scattered Clouds
3:48 PM 73.4 °F 68.0 °F 83% 29.88 in 10.0 mi Variable 5.8 mph - N/A   Mostly Cloudy
3:55 PM 73.8 °F 67.1 °F 80% 29.88 in 10.0 mi South 9.2 mph - N/A   Mostly Cloudy
4:45 PM 71.6 °F 66.2 °F 83% 29.86 in 10.0 mi South 10.4 mph - N/A Rain Light Rain
4:55 PM 72.0 °F 66.0 °F 81% 29.83 in 10.0 mi South 13.8 mph 19.6 mph 0.01 in   Light Drizzle
5:10 PM 71.6 °F 66.2 °F 83% 29.85 in 10.0 mi South 9.2 mph 17.3 mph N/A Thunderstorm Clear
5:48 PM 71.6 °F 68.0 °F 88% 29.88 in 10.0 mi ESE 5.8 mph - N/A   Scattered Clouds
5:55 PM 71.8 °F 67.8 °F 87% 29.89 in 10.0 mi SE 3.5 mph - 0.00 in   Scattered Clouds
6:10 PM 71.6 °F 68.0 °F 88% 29.90 in 10.0 mi Calm Calm - N/A Rain Light Rain
6:24 PM 71.6 °F 68.0 °F 88% 29.90 in 10.0 mi Calm Calm - N/A   Partly Cloudy
6:55 PM 70.9 °F 67.8 °F 90% 29.90 in 10.0 mi East 3.5 mph - 0.00 in   Partly Cloudy
7:55 PM 70.2 °F 67.5 °F 91% 29.89 in 9.0 mi Calm Calm - N/A   Partly Cloudy
8:55 PM 68.5 °F 66.0 °F 92% 29.92 in 9.0 mi SSW 3.5 mph - N/A   Mostly Cloudy
10:37 PM 69.8 °F 66.2 °F 88% 29.92 in 10.0 mi SE 3.5 mph - N/A   Overcast
10:43 PM 69.8 °F 66.2 °F 88% 29.92 in 10.0 mi South 3.5 mph - N/A   Overcast
10:46 PM 69.8 °F 66.2 °F 88% 29.92 in 9.0 mi SSE 4.6 mph - N/A   Mostly Cloudy
10:55 PM 68.9 °F 65.8 °F 90% 29.92 in 9.0 mi SSE 3.5 mph - N/A   Overcast
11:12 PM 69.8 °F 66.2 °F 88% 29.91 in 9.0 mi SSW 4.6 mph - N/A   Overcast
11:49 PM 69.8 °F 68.0 °F 94% 29.91 in 7.0 mi South 6.9 mph - N/A   Mostly Cloudy
11:55 PM 70.0 °F 67.8 °F 93% 29.91 in 6.0 mi South 6.9 mph - N/A   Mostly Cloudy
11:57 PM 69.8 °F 68.0 °F 94% 29.91 in 6.0 mi South 6.9 mph - N/A   Mostly Cloudy